Home   Weather   Nadi   Past weeks

Flag for Fiji Past Weather in Nadi, Fiji — Yesterday and Last 2 Weeks

Now
72 °F

Partly sunny.


Feels Like: 65 °F
Forecast: 73 / 80 °F
Wind: 3 mph from South

Location: Nandi

Current Time: Aug 21, 2017 at 7:27:12 am

Latest Report: Aug 21, 2017 at 7:00 am


Visibility: N/A

Pressure: 29.83 "Hg

Humidity: 100%

Dew Point: 72 °F

Location of NadiLocation

Past Weather in Nadi — Graph

°F

Nadi Temperature Yesterday

Maximum temperature yesterday: 82 °F (at 11:00 am)
Minimum temperature yesterday: 66 °F (at 12:00 am)
Average temperature yesterday: 73 °F

High & Low Weather Summary for the Past Weeks

 TemperatureHumidityPressure
High86 °F (Aug 12, 12:00 pm)100% (Aug 15, 7:00 am)30.07 "Hg (Aug 15, 7:00 am)
Low57 °F (Aug 18, 4:00 am)35% (Aug 8, 3:00 pm)29.74 "Hg (Aug 16, 3:00 am)
Average74 °F74%29.94 "Hg
* Reported Aug 6 6:00 am — Aug 21 6:00 am, Nadi. Weather by CustomWeather, © 2017

Note: Actual official high and low records may vary slightly from our data, if they occured in-between our weather recording intervals... More about our weather records

Advertising

Nadi Weather History for the Previous 24 Hours

Scroll right to see more
 ConditionsComfort  
Time TempWeatherWind HumidityBarometerVisibility
6:00 am
Mon, Aug 21
72 °FSprinkles. Partly cloudy.5 mph100%29.83 "Hg5 mi
5:00 am72 °FSprinkles. Partly cloudy.5 mph100%29.83 "Hg5 mi
4:00 am72 °FSprinkles. Partly cloudy.5 mph100%29.83 "HgN/A
3:00 am73 °FRain showers. Passing clouds.5 mph94%29.83 "HgN/A
2:10 am72 °FSprinkles. Partly cloudy.5 mph100%29.86 "HgN/A
2:00 am72 °FRain showers. Partly cloudy.5 mph100%29.86 "Hg4 mi
1:40 am73 °FLots of rain. Passing clouds.No wind94%29.86 "Hg3 mi
1:00 am73 °FPassing clouds.5 mph94%29.86 "HgN/A
12:00 am73 °FPassing clouds.3 mph89%29.86 "HgN/A
11:00 pm
Sun, Aug 20
73 °FPartly cloudy.5 mph100%29.86 "HgN/A
10:00 pm73 °FPassing clouds.5 mph94%29.86 "HgN/A
9:00 pm73 °FPassing clouds.6 mph94%29.86 "HgN/A
8:00 pm73 °FPassing clouds.8 mph94%29.86 "HgN/A
7:00 pm73 °FPassing clouds.3 mph100%29.83 "HgN/A
6:00 pm73 °FPassing clouds.3 mph100%29.83 "HgN/A
5:30 pm73 °FSprinkles. Partly sunny.No wind94%29.83 "HgN/A
5:10 pm73 °FRain showers. Partly sunny.3 mph94%29.83 "Hg4 mi
5:00 pm73 °FDrizzle. Partly sunny.5 mph94%29.83 "HgN/A
4:00 pm75 °FDrizzle. Partly sunny.7 mph94%29.80 "HgN/A
3:30 pm79 °FRain showers. Partly sunny.9 mph74%29.80 "Hg3 mi
3:00 pm79 °FScattered showers. Broken clouds.6 mph74%29.80 "HgN/A
2:00 pm79 °FBroken clouds.9 mph79%29.80 "HgN/A
1:00 pm82 °FBroken clouds.8 mph70%29.83 "HgN/A
12:00 pm81 °FBroken clouds.8 mph70%29.83 "HgN/A
11:00 am82 °FPartly sunny.3 mph66%29.86 "HgN/A
10:00 am79 °FBroken clouds.6 mph74%29.89 "HgN/A
9:00 am75 °FBroken clouds.5 mph78%29.89 "HgN/A
8:00 am70 °FBroken clouds.2 mph88%29.86 "HgN/A
7:00 am66 °FPartly sunny.3 mph94%29.83 "HgN/A
Weather by CustomWeather, © 2017

See weather overviewHow to use our weather pages